Tracking 30995 objects as of 5-Jul-2025
HD Live streaming from Space Station
objects crossing your sky now

GAOFEN 1-03

Track GAOFEN 1-03 now!
10-day predictions


NORAD ID: 43260
Int'l Code: 2018-031B
Perigee: 642.2 km
Apogee: 652.1 km
Inclination: 97.8 °
Period: 97.5 minutes
Semi major axis: 7018 km
RCS: Unknown
Launch date: March 31, 2018
Source: People's Republic of China (PRC)
Launch site: Taiyaun Space Center, China (TSC)
Your satellite tracking list
Your tracking list is empty




NASA's NSSDC Master Catalog

Two Line Element Set (TLE):
1 43260U 18031B   25186.56666588  .00000634  00000-0  97771-4 0  9998
2 43260  97.7708 246.8019 0007040  74.7948 285.4041 14.76608727391549
Source of the keplerian elements: AFSPC